Погода в Паргелии

Италия     38°40′57″N   15°55′14″E
темп.,
°C
ветер,
м/с
пор.,
м/с
влажн.,
%
обл.,
%
осадки,
мм/ч
давл.,
гПа
погр.,
м
14 апреля, ср
ср1423:00+13з446912 0.1 1020826
02:00+12зсз446834 0.2 1020859
05:00+12з336999 0.1 1019473
08:00+13сз2263100 0.2 1020589
11:00+13сз226297 0.0 1020723
14:00+14ссз436610 0.0 1019672
17:00+14ссз32663 0.0 1019546
20:00+13всв226999 0.0 1019388
15 апреля, чт
чт1523:00+11юв337512 0.0 1020150
02:00+10вюв337319 0.0 1019157
05:00+10вюв336994 0.0 1019173
08:00+11в336493 0.0 1019216
11:00+13ссв125773 0.0 1019402
14:00+14сз235989 0.0 1018408
17:00+14зсз336293 0.0 1018481
20:00+13в1170100 0.0 1018255
16 апреля, пт
пт1623:00+12в3372100 0.0 1017152
02:00+12в4472100 0.2 1016223
05:00+12в5666100 0.0 1013307
08:00+11в5675100 0.8 1014443
11:00+12в8971100 0.6 1013761
14:00+14в111264100 0.6 1010823
17:00+13вюв10126549 0.0 10081003
20:00+12в8117258 0.0 1009808
17 апреля, сб
сб1723:00+12в6107621 0.1 1008637
02:00+11в567846 0.1 1006338
05:00+12в2377100 0.0 1005209
08:00+13св1174100 0.0 1005203
11:00+12юз3384100 0.4 1006333
14:00+13з448291 0.8 1007618
17:00+13зсз348022 0.1 1008525
20:00+12з228098 0.1 1009327
18 апреля, вс
вс1823:00+13ю1177100 0.0 1012289
02:00+12ююв117891 0.1 1011217
05:00+12вюв117776 0.0 1012221
08:00+13юв237675 0.0 1013222
11:00+14в127193 0.9 1013326
14:00+16зсз2263100 1.7 1012354
17:00+15ссв3373100 1.4 1011139
20:00+13юв4480100 6.6 1012211